TimeEDT,TemperatureF,Dew PointF,Humidity,Sea Level PressureIn,VisibilityMPH,Wind Direction,Wind SpeedMPH,Gust SpeedMPH,PrecipitationIn,Events,Conditions,WindDirDegrees,DateUTC
12:53 AM,46.9,34.0,61,29.66,10.0,West,17.3,24.2,N/A,,Overcast,260,2012-10-16 04:53:00
1:53 AM,46.0,36.0,68,29.67,10.0,SW,9.2,-,0.00,Rain,Light Rain,230,2012-10-16 05:53:00
2:53 AM,42.1,37.9,85,29.69,10.0,West,15.0,19.6,0.01,Rain,Light Rain,270,2012-10-16 06:53:00
3:14 AM,42.8,35.6,76,29.69,10.0,West,16.1,21.9,0.00,,Overcast,270,2012-10-16 07:14:00
3:28 AM,42.8,35.6,76,29.69,10.0,West,12.7,21.9,0.00,,Overcast,270,2012-10-16 07:28:00
3:53 AM,42.1,35.1,76,29.70,10.0,West,15.0,25.3,0.00,,Overcast,270,2012-10-16 07:53:00
4:53 AM,41.0,34.0,76,29.73,10.0,West,12.7,23.0,N/A,,Overcast,270,2012-10-16 08:53:00
5:14 AM,41.0,33.8,76,29.74,10.0,West,17.3,23.0,0.00,,Overcast,260,2012-10-16 09:14:00
5:48 AM,41.0,33.8,76,29.75,10.0,West,11.5,-,0.00,,Overcast,270,2012-10-16 09:48:00
5:53 AM,41.0,34.0,76,29.76,10.0,West,13.8,-,0.00,,Overcast,260,2012-10-16 09:53:00
6:31 AM,39.2,33.8,81,29.76,10.0,West,9.2,18.4,N/A,,Mostly Cloudy,270,2012-10-16 10:31:00
6:53 AM,39.9,34.0,79,29.78,10.0,WSW,6.9,-,N/A,,Mostly Cloudy,250,2012-10-16 10:53:00
7:53 AM,42.8,33.8,70,29.79,10.0,West,10.4,-,N/A,,Overcast,260,2012-10-16 11:53:00
8:53 AM,42.1,35.1,76,29.81,10.0,West,9.2,21.9,N/A,,Overcast,270,2012-10-16 12:53:00
9:31 AM,42.8,35.6,76,29.80,10.0,West,12.7,21.9,N/A,,Overcast,270,2012-10-16 13:31:00
9:53 AM,43.0,34.0,71,29.82,10.0,West,12.7,20.7,N/A,,Overcast,280,2012-10-16 13:53:00
10:53 AM,45.0,35.1,68,29.83,10.0,West,13.8,21.9,N/A,,Overcast,280,2012-10-16 14:53:00
11:40 AM,46.4,35.6,66,29.82,10.0,West,15.0,19.6,N/A,,Overcast,270,2012-10-16 15:40:00
11:53 AM,46.0,34.0,63,29.83,10.0,West,13.8,19.6,N/A,,Overcast,270,2012-10-16 15:53:00
12:53 PM,46.0,35.1,66,29.83,10.0,West,16.1,25.3,N/A,,Overcast,260,2012-10-16 16:53:00
1:53 PM,46.9,34.0,61,29.84,10.0,West,13.8,20.7,N/A,,Overcast,260,2012-10-16 17:53:00
2:53 PM,46.0,35.1,66,29.84,10.0,West,9.2,20.7,0.00,,Overcast,270,2012-10-16 18:53:00
3:53 PM,46.9,32.0,56,29.84,10.0,West,12.7,-,N/A,,Overcast,260,2012-10-16 19:53:00
4:53 PM,48.0,32.0,54,29.84,10.0,West,10.4,-,N/A,,Clear,280,2012-10-16 20:53:00
5:53 PM,44.1,32.0,63,29.85,10.0,West,4.6,-,N/A,,Clear,260,2012-10-16 21:53:00
6:53 PM,37.9,30.9,76,29.86,10.0,Calm,Calm,-,N/A,,Clear,0,2012-10-16 22:53:00
7:53 PM,34.0,30.9,89,29.87,10.0,Calm,Calm,-,N/A,,Clear,0,2012-10-16 23:53:00
8:53 PM,33.1,30.0,89,29.89,10.0,Calm,Calm,-,N/A,,Clear,0,2012-10-17 00:53:00
9:53 PM,30.9,30.0,96,29.90,10.0,Calm,Calm,-,N/A,,Clear,0,2012-10-17 01:53:00
10:53 PM,30.9,28.0,89,29.91,10.0,Calm,Calm,-,N/A,,Clear,0,2012-10-17 02:53:00
11:53 PM,28.0,28.0,100,29.92,5.0,Calm,Calm,-,N/A,,Partly Cloudy,0,2012-10-17 03:53:00